Location: �terpigny
(49.8910°N, 2.9249°E)
Time: 17:26:52
(UTC+00:00)

CSL-04 Rocket - Pass Details

Date: 24 October 2021
Orbit: 805 x 860 km, 98.9° (Epoch: 02 December)

Event Time Altitude Azimuth Distance (km) Brightness Sun altitude
Exits shadow 18:56:01 33° 150° (SSE) 1,404 4.5 -22.6°
Maximum altitude 18:58:35 75° 72° (ENE) 894 3.6 -23.0°
Drops below altitude 10° 19:04:10 10° 348° (NNW) 2,510 6.4 -23.9°
Sets 19:06:33 0° 347° (NNW) 3,449 7.2 -24.3°
